Location: La Estación
(39.9833°N, 3.9500°W)
Time: 15:27:39
(UTC+00:00)

Cosmos 1066 Rocket - Pass Details

Date: 14 June 2025
Orbit: 797 x 893 km, 81.2° (Epoch: 20 July)

Event Time Altitude Azimuth Distance (km) Brightness Sun altitude
Rises 20:24:59 0° 186° (S) 3,469 7.1 -6.9°
Reaches altitude 10° 20:27:25 10° 186° (S) 2,542 6.4 -7.3°
Maximum altitude 20:33:14 86° 99° (E) 901 4.3 -8.1°
Drops below altitude 10° 20:39:07 10° 10° (N) 2,569 7.2 -9.0°
Sets 20:41:35 0° 10° (N) 3,508 7.9 -9.4°
